Weather reports worldwide

Advertisment
Ciudad Victoria, Mexico (76491): temperature & dewpoint: 11.10.2018 16:00:00 - 17.10.2018 16:00:00 (CDT)Ciudad Victoria, Mexico (76491): wind speed: 11.10.2018 16:00:00 - 17.10.2018 16:00:00 (CDT)Ciudad Victoria, Mexico (76491): wind direction: 11.10.2018 16:00:00 - 17.10.2018 16:00:00 (CDT)Ciudad Victoria, Mexico (76491): reduced air pressure: 11.10.2018 16:00:00 - 17.10.2018 16:00:00 (CDT)Ciudad Victoria, Mexico (76491): visibility: 11.10.2018 16:00:00 - 17.10.2018 16:00:00 (CDT)
Date & Time tt [°C] td [°C] ff [km/h] ff [kn] dd ppp [hPa] vv [km]
17.10.2018 16:00:00 17,6 15,9 14 8 N 1022,4 10
17.10.2018 15:00:00 - - - - - - -
17.10.2018 14:00:00 - - - - - - -
17.10.2018 13:00:00 15,8 14,2 7 4 N 1026,1 10
17.10.2018 12:00:00 - - - - - - -
17.10.2018 11:00:00 - - - - - - -
17.10.2018 10:00:00 12,2 12,0 4 2 N 1026,8 10
17.10.2018 09:00:00 - - - - - - -
17.10.2018 08:00:00 - - - - - - -
17.10.2018 07:00:00 11,6 11,4 4 2 N 1024,3 6
17.10.2018 06:00:00 - - - - - - -
17.10.2018 05:00:00 - - - - - - -
17.10.2018 04:00:00 12,0 11,8 7 4 N 1023,8 6
17.10.2018 03:00:00 - - - - - - -
17.10.2018 02:00:00 - - - - - - -
17.10.2018 01:00:00 12,0 11,8 4 2 N 1024,8 6
17.10.2018 00:00:00 - - - - - - -
16.10.2018 23:00:00 - - - - - - -
16.10.2018 22:00:00 11,8 11,6 7 4 N 1024,5 6
16.10.2018 21:00:00 - - - - - - -
16.10.2018 20:00:00 - - - - - - -
16.10.2018 19:00:00 11,6 11,4 14 8 N 1022,3 8
16.10.2018 18:00:00 - - - - - - -
16.10.2018 17:00:00 - - - - - - -
16.10.2018 16:00:00 12,4 12,2 11 6 N 1021,9 8
16.10.2018 15:00:00 - - - - - - -
16.10.2018 14:00:00 - - - - - - -
16.10.2018 13:00:00 11,6 11,4 11 6 N 1022,8 10
16.10.2018 12:00:00 - - - - - - -
16.10.2018 11:00:00 - - - - - - -
16.10.2018 10:00:00 10,2 10,0 11 6 N 1023,3 10
16.10.2018 09:00:00 - - - - - - -
16.10.2018 08:00:00 - - - - - - -
16.10.2018 07:00:00 - - - - - - -
16.10.2018 06:00:00 - - - - - - -
16.10.2018 05:00:00 - - - - - - -
16.10.2018 04:00:00 - - - - - - -
16.10.2018 03:00:00 - - - - - - -
16.10.2018 02:00:00 - - - - - - -
16.10.2018 01:00:00 12,0 11,8 7 4 N 1020,9 6
16.10.2018 00:00:00 - - - - - - -
15.10.2018 23:00:00 - - - - - - -
15.10.2018 22:00:00 13,0 12,8 14 8 N 1019,3 6
15.10.2018 21:00:00 - - - - - - -
15.10.2018 20:00:00 - - - - - - -
15.10.2018 19:00:00 16,2 16,1 25 14 N 1014,6 10
15.10.2018 18:00:00 - - - - - - -
15.10.2018 17:00:00 - - - - - - -
15.10.2018 16:00:00 34,0 25,1 11 6 E 1010,3 10
15.10.2018 15:00:00 - - - - - - -
15.10.2018 14:00:00 - - - - - - -
15.10.2018 13:00:00 32,8 25,1 7 4 SE 1012,4 10
15.10.2018 12:00:00 - - - - - - -
15.10.2018 11:00:00 - - - - - - -
15.10.2018 10:00:00 27,0 25,9 4 2 N 1012,7 10
15.10.2018 09:00:00 - - - - - - -
15.10.2018 08:00:00 - - - - - - -
15.10.2018 07:00:00 24,6 24,5 4 2 WSW 1011,2 6
15.10.2018 06:00:00 - - - - - - -
15.10.2018 05:00:00 - - - - - - -
15.10.2018 04:00:00 27,0 24,4 4 2 ESE 1010,4 6
15.10.2018 03:00:00 - - - - - - -
15.10.2018 02:00:00 - - - - - - -
15.10.2018 01:00:00 26,8 25,1 4 2 ESE 1010,6 6
15.10.2018 00:00:00 - - - - - - -
14.10.2018 23:00:00 - - - - - - -
14.10.2018 22:00:00 27,0 25,9 4 2 ESE 1009,8 6
14.10.2018 21:00:00 - - - - - - -
14.10.2018 20:00:00 - - - - - - -
14.10.2018 19:00:00 30,8 23,7 11 6 E 1007,1 10
14.10.2018 18:00:00 - - - - - - -
14.10.2018 17:00:00 - - - - - - -
14.10.2018 16:00:00 33,8 24,3 11 6 E 1007,4 10
14.10.2018 15:00:00 - - - - - - -
14.10.2018 14:00:00 - - - - - - -
14.10.2018 13:00:00 31,2 25,1 4 2 N 1010,2 10
14.10.2018 12:00:00 - - - - - - -
14.10.2018 11:00:00 - - - - - - -
14.10.2018 10:00:00 25,2 25,1 4 2 N 1010,5 10
14.10.2018 09:00:00 - - - - - - -
14.10.2018 08:00:00 - - - - - - -
14.10.2018 07:00:00 - - - - - - -
14.10.2018 06:00:00 - - - - - - -
14.10.2018 05:00:00 - - - - - - -
14.10.2018 04:00:00 - - - - - - -
14.10.2018 03:00:00 - - - - - - -
14.10.2018 02:00:00 - - - - - - -
14.10.2018 01:00:00 - - - - - - -
14.10.2018 00:00:00 - - - - - - -
13.10.2018 23:00:00 - - - - - - -
13.10.2018 22:00:00 - - - - - - -
13.10.2018 21:00:00 - - - - - - -
13.10.2018 20:00:00 - - - - - - -
13.10.2018 19:00:00 30,8 25,1 4 2 E 1006,2 10
13.10.2018 18:00:00 - - - - - - -
13.10.2018 17:00:00 - - - - - - -
13.10.2018 16:00:00 34,5 23,8 4 2 N 1006,7 10
13.10.2018 15:00:00 - - - - - - -
13.10.2018 14:00:00 - - - - - - -
13.10.2018 13:00:00 32,6 23,7 4 2 E 1009,6 10
13.10.2018 12:00:00 - - - - - - -
13.10.2018 11:00:00 - - - - - - -
13.10.2018 10:00:00 26,2 25,5 4 2 N 1011,2 10
13.10.2018 09:00:00 - - - - - - -
13.10.2018 08:00:00 - - - - - - -
13.10.2018 07:00:00 23,2 23,1 0 0 N 1009,7 6
13.10.2018 06:00:00 - - - - - - -
13.10.2018 05:00:00 - - - - - - -
13.10.2018 04:00:00 24,2 24,1 0 0 N 1010,1 6
13.10.2018 03:00:00 - - - - - - -
13.10.2018 02:00:00 - - - - - - -
13.10.2018 01:00:00 24,0 23,9 0 0 N 1010,8 6
13.10.2018 00:00:00 - - - - - - -
12.10.2018 23:00:00 - - - - - - -
12.10.2018 22:00:00 26,0 25,5 0 0 N 1010,4 10
12.10.2018 21:00:00 - - - - - - -
12.10.2018 20:00:00 - - - - - - -
12.10.2018 19:00:00 30,6 24,0 4 2 E 1009,3 10
12.10.2018 18:00:00 - - - - - - -
12.10.2018 17:00:00 - - - - - - -
12.10.2018 16:00:00 - - - - - - -
12.10.2018 15:00:00 - - - - - - -
12.10.2018 14:00:00 - - - - - - -
12.10.2018 13:00:00 32,2 24,9 7 4 ESE 1013,8 10
12.10.2018 12:00:00 - - - - - - -
12.10.2018 11:00:00 - - - - - - -
12.10.2018 10:00:00 25,8 25,1 0 0 N 1015,4 10
12.10.2018 09:00:00 - - - - - - -
12.10.2018 08:00:00 - - - - - - -
12.10.2018 07:00:00 23,2 23,1 0 0 N 1010,2 6
12.10.2018 06:00:00 - - - - - - -
12.10.2018 05:00:00 - - - - - - -
12.10.2018 04:00:00 23,4 23,3 0 0 N 1013,9 6
12.10.2018 03:00:00 - - - - - - -
12.10.2018 02:00:00 - - - - - - -
12.10.2018 01:00:00 24,6 24,5 0 0 N 1015,1 6
12.10.2018 00:00:00 - - - - - - -
11.10.2018 23:00:00 - - - - - - -
11.10.2018 22:00:00 25,0 24,9 4 2 SW 1014,8 6
11.10.2018 21:00:00 - - - - - - -
11.10.2018 20:00:00 - - - - - - -
11.10.2018 19:00:00 25,0 24,9 7 4 W 1012,7 10
11.10.2018 18:00:00 - - - - - - -
11.10.2018 17:00:00 - - - - - - -
11.10.2018 16:00:00 32,2 22,4 4 2 SSE 1013,0 10

tt = temperature
td = dewpoint
ff = wind speed
dd = wind direction
ppp = reduced air pressure
vv = visibility

Next stations